QFA361 YPDN-YPPH

Flight info

Callsign QFA361
Flight time N/A
Altitude 28000
Route DN J151 HELLI/N0485F300 J151 IRPOM/N0484F290 DCT KU/N0484F300 J72 ARG T63 BIDAP Q25 DALWU Q38 PH
Aircraft B738/M-SDE2E3FGHIRWXY/LB1

Departure

Time 2026-05-04 09:14
Airport Darwin International Airport / RAAF Darwin (YPDN)

Arrival

Time N/A
Airport Perth International Airport (YPPH)
Time Latitude Longitude Altitude Speed Heading
2026-05-04 08:55 -12.40938 130.87906 94 ft 0 kts 20°
2026-05-04 09:07 -12.40985 130.87867 95 ft 4 kts 90°
2026-05-04 09:08 -12.40984 130.87857 95 ft 1 kts 109°
2026-05-04 09:10 -12.40998 130.87902 76 ft 14 kts 108°
2026-05-04 09:10 -12.41045 130.88043 97 ft 27 kts 111°
2026-05-04 09:10 -12.41186 130.88070 99 ft 23 kts 200°
2026-05-04 09:10 -12.41334 130.88017 100 ft 22 kts 199°
2026-05-04 09:11 -12.41457 130.88062 95 ft 22 kts 113°
2026-05-04 09:11 -12.41505 130.88205 95 ft 21 kts 108°
2026-05-04 09:11 -12.41553 130.88353 93 ft 28 kts 110°
2026-05-04 09:11 -12.41649 130.88628 94 ft 53 kts 109°
2026-05-04 09:12 -12.41780 130.89026 96 ft 58 kts 107°
2026-05-04 09:12 -12.41864 130.89366 94 ft 32 kts 86°
2026-05-04 09:14 -12.40639 130.84893 2032 ft 197 kts 265°
2026-05-04 09:14 -12.41058 130.83542 2823 ft 201 kts 232°
2026-05-04 09:14 -12.42059 130.82571 3662 ft 203 kts 217°
2026-05-04 09:14 -12.43086 130.81532 4274 ft 208 kts 222°
2026-05-04 09:15 -12.43931 130.80280 4584 ft 231 kts 252°
2026-05-04 09:15 -12.44375 130.78640 4772 ft 248 kts 240°
2026-05-04 09:15 -12.45316 130.77120 5119 ft 257 kts 233°
2026-05-04 09:15 -12.46333 130.75590 5642 ft 262 kts 229°
2026-05-04 09:17 -12.56711 130.63442 10319 ft 313 kts 229°
2026-05-04 09:18 -12.58181 130.61702 10488 ft 333 kts 229°
2026-05-04 09:18 -12.59735 130.59859 10648 ft 351 kts 229°
2026-05-04 09:18 -12.61377 130.57909 10781 ft 369 kts 229°
2026-05-04 09:18 -12.63085 130.55877 10931 ft 384 kts 229°
2026-05-04 09:19 -12.64850 130.53777 11230 ft 392 kts 229°
2026-05-04 09:19 -12.66637 130.51649 11703 ft 395 kts 230°
2026-05-04 09:19 -12.68431 130.49513 12219 ft 397 kts 230°
2026-05-04 09:19 -12.70236 130.47365 12694 ft 399 kts 230°
2026-05-04 09:20 -12.72057 130.45200 13157 ft 402 kts 230°
2026-05-04 09:20 -12.73886 130.43020 13632 ft 404 kts 230°
2026-05-04 09:20 -12.75723 130.40833 14051 ft 406 kts 230°
2026-05-04 09:20 -12.77555 130.38651 14674 ft 398 kts 230°
2026-05-04 09:21 -12.79301 130.36568 15983 ft 361 kts 231°
2026-05-04 09:21 -12.80826 130.34751 17813 ft 310 kts 232°
2026-05-04 09:21 -12.82150 130.33179 19192 ft 278 kts 232°
2026-05-04 09:21 -12.83398 130.31690 19661 ft 278 kts 233°
2026-05-04 09:22 -12.84670 130.30161 19725 ft 290 kts 232°
2026-05-04 09:22 -12.86005 130.28558 19811 ft 301 kts 232°
2026-05-04 09:22 -12.87386 130.26902 19964 ft 309 kts 232°
2026-05-04 09:22 -12.88791 130.25221 20268 ft 311 kts 232°
2026-05-04 09:23 -12.90199 130.23540 20609 ft 311 kts 232°
2026-05-04 09:23 -12.91610 130.21855 20922 ft 312 kts 232°
2026-05-04 09:23 -12.93032 130.20155 21212 ft 314 kts 233°
2026-05-04 09:23 -12.94457 130.18451 21505 ft 316 kts 233°
2026-05-04 09:25 -13.04604 130.06313 23463 ft 325 kts 233°
2026-05-04 09:25 -13.06098 130.04524 23690 ft 327 kts 233°
2026-05-04 09:26 -13.07560 130.02774 23933 ft 327 kts 233°
2026-05-04 09:26 -13.09042 130.01000 24173 ft 327 kts 233°
2026-05-04 09:26 -13.10522 129.99227 24408 ft 327 kts 233°
2026-05-04 09:26 -13.12004 129.97452 24637 ft 328 kts 233°
2026-05-04 09:27 -13.13487 129.95674 24869 ft 328 kts 233°
2026-05-04 09:27 -13.14971 129.93895 25100 ft 328 kts 233°
2026-05-04 09:27 -13.16454 129.92116 25330 ft 329 kts 233°
2026-05-04 09:27 -13.17945 129.90328 25549 ft 329 kts 233°
2026-05-04 09:28 -13.19433 129.88543 25765 ft 330 kts 233°
2026-05-04 09:28 -13.20924 129.86754 25980 ft 330 kts 233°
2026-05-04 09:28 -13.22416 129.84964 26194 ft 330 kts 233°
2026-05-04 09:28 -13.23913 129.83168 26403 ft 331 kts 233°
2026-05-04 09:29 -13.25384 129.81349 26607 ft 331 kts 234°
2026-05-04 09:29 -13.26783 129.79514 26799 ft 331 kts 236°
2026-05-04 09:29 -13.28203 129.77614 27000 ft 331 kts 236°
2026-05-04 09:29 -13.29581 129.75764 27197 ft 331 kts 236°
2026-05-04 09:30 -13.30985 129.73882 27387 ft 332 kts 235°
2026-05-04 09:30 -13.32395 129.71998 27573 ft 332 kts 235°
2026-05-04 09:30 -13.33809 129.70111 27755 ft 333 kts 235°
2026-05-04 09:30 -13.35223 129.68228 27933 ft 333 kts 235°
2026-05-04 09:31 -13.36639 129.66345 28112 ft 334 kts 235°
2026-05-04 09:31 -13.38059 129.64457 28287 ft 334 kts 235°
2026-05-04 09:31 -13.39484 129.62563 28457 ft 335 kts 235°
2026-05-04 09:31 -13.40913 129.60663 28625 ft 335 kts 235°
2026-05-04 09:32 -13.42336 129.58771 28794 ft 336 kts 235°
2026-05-04 09:32 -13.43749 129.56893 28950 ft 336 kts 235°
2026-05-04 09:34 -13.53862 129.43439 29886 ft 343 kts 234°
2026-05-04 09:34 -13.55319 129.41500 29990 ft 344 kts 234°
2026-05-04 09:34 -13.56784 129.39549 30096 ft 344 kts 234°
2026-05-04 09:34 -13.58245 129.37603 30212 ft 344 kts 234°
2026-05-04 09:35 -13.61164 129.33713 30380 ft 347 kts 234°
2026-05-04 09:35 -13.62657 129.31722 30483 ft 347 kts 234°
2026-05-04 09:35 -13.64110 129.29785 30588 ft 347 kts 234°
2026-05-04 09:37 -13.74483 129.15942 31187 ft 350 kts 234°
2026-05-04 09:37 -13.75970 129.13956 31234 ft 351 kts 234°
2026-05-04 09:38 -13.78963 129.09956 31368 ft 352 kts 234°
2026-05-04 09:38 -13.81954 129.05957 31534 ft 353 kts 234°
2026-05-04 09:39 -13.84947 129.01955 31670 ft 353 kts 234°
2026-05-04 09:39 -13.87927 128.97967 31805 ft 353 kts 234°
2026-05-04 09:40 -13.90926 128.93951 31902 ft 355 kts 234°
2026-05-04 09:40 -13.93946 128.89906 32023 ft 355 kts 234°
2026-05-04 09:42 -14.06002 128.73737 32453 ft 357 kts 234°
2026-05-04 09:43 -14.09028 128.69672 32546 ft 357 kts 234°
2026-05-04 09:43 -14.11565 128.66264 32596 ft 358 kts 234°
2026-05-04 09:44 -14.14825 128.62429 32621 ft 364 kts 217°
2026-05-04 09:44 -14.17074 128.61205 32677 ft 369 kts 205°
2026-05-04 09:46 -14.35651 128.61554 32903 ft 386 kts 182°
2026-05-04 09:46 -14.41016 128.61925 32968 ft 386 kts 182°
2026-05-04 09:47 -14.46389 128.62281 33039 ft 386 kts 183°
2026-05-04 09:49 -14.65146 128.63507 33266 ft 387 kts 183°
2026-05-04 09:49 -14.67834 128.63683 33290 ft 387 kts 183°
2026-05-04 09:51 -14.86671 128.64917 33459 ft 388 kts 183°
2026-05-04 09:51 -14.92055 128.65270 33508 ft 388 kts 183°
2026-05-04 09:52 -14.97446 128.65624 33560 ft 388 kts 184°
2026-05-04 09:52 -15.02838 128.65978 33599 ft 388 kts 184°
2026-05-04 09:53 -15.08225 128.66332 33644 ft 388 kts 184°
2026-05-04 09:53 -15.13578 128.66684 33687 ft 388 kts 184°
2026-05-04 09:54 -15.18978 128.67039 33717 ft 389 kts 184°
2026-05-04 09:54 -15.24377 128.67394 33752 ft 389 kts 184°
2026-05-04 09:55 -15.29780 128.67750 33797 ft 389 kts 184°
2026-05-04 09:55 -15.35183 128.68106 33818 ft 389 kts 184°
2026-05-04 09:56 -15.40590 128.68462 33849 ft 389 kts 184°
2026-05-04 09:56 -15.46002 128.68819 33889 ft 389 kts 184°
2026-05-04 09:57 -15.51410 128.69176 33926 ft 389 kts 184°
2026-05-04 09:57 -15.56823 128.69533 33947 ft 390 kts 184°
2026-05-04 09:58 -15.62196 128.69888 33979 ft 390 kts 184°
2026-05-04 09:58 -15.67608 128.70246 34002 ft 390 kts 184°
2026-05-04 10:00 -15.85878 128.68424 34083 ft 371 kts 203°
2026-05-04 10:00 -15.88352 128.67657 34098 ft 371 kts 203°
2026-05-04 10:04 -16.22836 128.57180 34536 ft 363 kts 204°
2026-05-04 10:04 -16.27726 128.55694 34585 ft 363 kts 204°
2026-05-04 10:05 -16.32547 128.54229 34630 ft 364 kts 204°
2026-05-04 10:05 -16.37416 128.52750 34662 ft 364 kts 204°
2026-05-04 10:06 -16.42282 128.51271 34693 ft 363 kts 204°
2026-05-04 10:06 -16.47130 128.49796 34726 ft 363 kts 204°
2026-05-04 10:08 -16.64005 128.44392 34796 ft 356 kts 214°
2026-05-04 10:08 -16.68222 128.41784 34826 ft 351 kts 218°
2026-05-04 10:09 -16.72379 128.39122 34856 ft 351 kts 218°
2026-05-04 10:09 -16.76522 128.36479 34882 ft 351 kts 218°
2026-05-04 10:10 -16.80703 128.33821 34901 ft 352 kts 218°
2026-05-04 10:10 -16.84883 128.31167 34927 ft 352 kts 218°
2026-05-04 10:11 -16.89066 128.28512 34954 ft 352 kts 218°
2026-05-04 10:11 -16.93248 128.25856 34977 ft 352 kts 218°
2026-05-04 10:12 -16.97437 128.23195 35011 ft 352 kts 218°
2026-05-04 10:12 -17.01593 128.20553 35023 ft 352 kts 218°
2026-05-04 10:13 -17.05774 128.17893 35056 ft 352 kts 218°
2026-05-04 10:13 -17.09962 128.15229 35080 ft 351 kts 218°
2026-05-04 10:14 -17.14134 128.12573 35113 ft 351 kts 218°
2026-05-04 10:16 -17.30808 128.01942 35209 ft 350 kts 218°
2026-05-04 10:16 -17.34959 127.99292 35233 ft 350 kts 218°
2026-05-04 10:17 -17.39094 127.96651 35264 ft 349 kts 219°
2026-05-04 10:19 -17.55678 127.86044 35358 ft 349 kts 219°
2026-05-04 10:19 -17.59817 127.83393 35388 ft 349 kts 219°
2026-05-04 10:20 -17.63965 127.80735 35406 ft 349 kts 219°
2026-05-04 10:20 -17.68108 127.78079 35426 ft 349 kts 219°
2026-05-04 10:21 -17.72236 127.75432 35482 ft 347 kts 219°
2026-05-04 10:21 -17.76352 127.72789 35508 ft 347 kts 219°
2026-05-04 10:22 -17.82525 127.68824 35553 ft 347 kts 219°
2026-05-04 10:23 -17.86621 127.66191 35572 ft 347 kts 219°
2026-05-04 10:25 -18.03074 127.55601 35671 ft 347 kts 220°
2026-05-04 10:25 -18.07191 127.52947 35696 ft 347 kts 220°
2026-05-04 10:26 -18.11299 127.50297 35712 ft 347 kts 220°
2026-05-04 10:26 -18.15413 127.47642 35743 ft 346 kts 220°
2026-05-04 10:27 -18.19522 127.44989 35758 ft 346 kts 220°
2026-05-04 10:27 -18.23610 127.42348 35783 ft 346 kts 220°
2026-05-04 10:28 -18.27711 127.39699 35873 ft 344 kts 220°
2026-05-04 10:28 -18.31769 127.37079 35994 ft 339 kts 220°
2026-05-04 10:29 -18.35784 127.34481 35993 ft 337 kts 220°
2026-05-04 10:29 -18.39103 127.32332 35999 ft 336 kts 220°
2026-05-04 10:30 -18.43714 127.29343 36002 ft 334 kts 220°
2026-05-04 10:30 -18.47656 127.26787 36005 ft 332 kts 220°
2026-05-04 10:31 -18.51588 127.24237 35997 ft 331 kts 220°
2026-05-04 10:32 -18.64575 127.15803 36009 ft 326 kts 220°
2026-05-04 10:33 -18.68437 127.13292 36007 ft 325 kts 220°
2026-05-04 10:33 -18.72258 127.10806 36010 ft 324 kts 220°
2026-05-04 10:34 -18.76092 127.08310 36009 ft 323 kts 220°
2026-05-04 10:34 -18.79908 127.05825 36011 ft 322 kts 221°
2026-05-04 10:35 -18.83709 127.03349 36008 ft 320 kts 221°
2026-05-04 10:35 -18.87502 127.00876 36012 ft 319 kts 221°
2026-05-04 10:36 -18.91278 126.98412 36008 ft 318 kts 221°
2026-05-04 10:36 -18.95045 126.95954 36015 ft 317 kts 221°
2026-05-04 10:37 -18.98793 126.93507 36011 ft 316 kts 221°
2026-05-04 10:37 -19.02506 126.91081 36020 ft 315 kts 221°
2026-05-04 10:39 -19.15490 126.82588 36021 ft 311 kts 221°
2026-05-04 10:40 -19.19166 126.80180 36020 ft 310 kts 221°
2026-05-04 10:40 -19.22824 126.77783 36027 ft 308 kts 221°
2026-05-04 10:41 -19.26448 126.75407 36023 ft 307 kts 221°
2026-05-04 10:41 -19.30072 126.73030 36022 ft 306 kts 221°
2026-05-04 10:42 -19.33682 126.70659 36023 ft 305 kts 222°
2026-05-04 10:42 -19.37272 126.68301 36029 ft 303 kts 222°
2026-05-04 10:43 -19.40850 126.65950 36029 ft 302 kts 222°
2026-05-04 10:44 -19.53227 126.57840 36033 ft 296 kts 222°
2026-05-04 10:45 -19.54973 126.56695 36030 ft 295 kts 222°
2026-05-04 10:45 -19.56718 126.55551 36029 ft 294 kts 222°
2026-05-04 10:45 -19.58458 126.54409 36030 ft 293 kts 222°
2026-05-04 10:45 -19.60187 126.53274 36031 ft 292 kts 222°
2026-05-04 10:46 -19.61918 126.52138 36032 ft 291 kts 223°
2026-05-04 10:46 -19.63637 126.51009 36027 ft 290 kts 223°
2026-05-04 10:46 -19.65345 126.49887 36029 ft 289 kts 223°
2026-05-04 10:46 -19.67056 126.48763 36031 ft 287 kts 223°
2026-05-04 10:47 -19.68750 126.47650 36029 ft 286 kts 223°
2026-05-04 10:47 -19.70417 126.46554 36027 ft 284 kts 223°
2026-05-04 10:47 -19.72099 126.45449 36033 ft 283 kts 223°
2026-05-04 10:47 -19.73758 126.44357 36032 ft 281 kts 223°
2026-05-04 10:49 -19.85287 126.36761 35736 ft 279 kts 223°
2026-05-04 10:49 -19.86938 126.35673 35703 ft 279 kts 223°
2026-05-04 10:50 -19.88563 126.34602 35688 ft 278 kts 223°
2026-05-04 10:51 -20.00040 126.27028 35419 ft 277 kts 223°
2026-05-04 10:52 -20.01680 126.25944 35396 ft 277 kts 224°
2026-05-04 10:52 -20.03312 126.24867 35536 ft 271 kts 220°
2026-05-04 10:52 -20.04893 126.23826 35741 ft 265 kts 221°
2026-05-04 10:54 -20.15420 126.16844 36045 ft 249 kts 221°
2026-05-04 10:54 -20.16880 126.15873 36047 ft 247 kts 221°
2026-05-04 10:56 -20.26874 126.09219 36006 ft 238 kts 221°
2026-05-04 10:56 -20.28294 126.08272 35952 ft 238 kts 222°
2026-05-04 10:56 -20.29680 126.07347 35896 ft 239 kts 221°
2026-05-04 10:57 -20.31092 126.06405 35837 ft 239 kts 221°
2026-05-04 10:57 -20.32501 126.05465 35801 ft 239 kts 221°
2026-05-04 10:57 -20.33910 126.04526 35777 ft 238 kts 221°
2026-05-04 10:57 -20.35311 126.03591 35761 ft 237 kts 221°
2026-05-04 10:58 -20.36708 126.02659 35746 ft 237 kts 221°
2026-05-04 10:58 -20.38101 126.01730 35720 ft 236 kts 222°
2026-05-04 10:58 -20.39494 126.00800 35680 ft 236 kts 222°
2026-05-04 10:58 -20.40886 125.99870 35639 ft 236 kts 221°
2026-05-04 10:59 -20.42279 125.98940 35599 ft 236 kts 221°
2026-05-04 10:59 -20.43669 125.98011 35570 ft 236 kts 221°
2026-05-04 10:59 -20.45050 125.97088 35551 ft 236 kts 221°
2026-05-04 10:59 -20.46438 125.96161 35529 ft 235 kts 222°
2026-05-04 11:00 -20.47822 125.95236 35504 ft 235 kts 221°
2026-05-04 11:01 -20.57505 125.88759 35335 ft 233 kts 222°
2026-05-04 11:02 -20.58878 125.87839 35315 ft 233 kts 222°
2026-05-04 11:02 -20.60248 125.86922 35285 ft 233 kts 222°
2026-05-04 11:05 -20.79353 125.74106 35009 ft 230 kts 222°
2026-05-04 11:06 -20.80708 125.73196 34987 ft 230 kts 222°
2026-05-04 11:06 -20.82066 125.72282 34970 ft 230 kts 221°
2026-05-04 11:06 -20.83426 125.71369 34953 ft 230 kts 221°
2026-05-04 11:06 -20.84779 125.70458 34943 ft 230 kts 221°
2026-05-04 11:08 -20.94258 125.64085 34837 ft 229 kts 221°
2026-05-04 11:10 -21.03690 125.57747 34750 ft 229 kts 221°
2026-05-04 11:12 -21.13092 125.51418 34681 ft 228 kts 221°
2026-05-04 11:12 -21.14439 125.50510 34668 ft 228 kts 221°
2026-05-04 11:12 -21.15783 125.49604 34662 ft 228 kts 221°
2026-05-04 11:12 -21.17128 125.48697 34659 ft 228 kts 221°
2026-05-04 11:13 -21.18467 125.47795 34650 ft 228 kts 221°
2026-05-04 11:13 -21.19811 125.46889 34646 ft 228 kts 221°
2026-05-04 11:13 -21.21147 125.45987 34640 ft 228 kts 221°
2026-05-04 11:13 -21.22490 125.45081 34630 ft 228 kts 221°
2026-05-04 11:14 -21.23832 125.44175 34623 ft 228 kts 221°
2026-05-04 11:14 -21.25172 125.43270 34611 ft 228 kts 221°
2026-05-04 11:14 -21.26518 125.42362 34607 ft 228 kts 221°
2026-05-04 11:16 -21.35886 125.36031 34573 ft 228 kts 221°
2026-05-04 11:16 -21.37229 125.35123 34570 ft 228 kts 221°
2026-05-04 11:16 -21.38572 125.34214 34565 ft 228 kts 221°
2026-05-04 11:17 -21.39911 125.33308 34562 ft 228 kts 221°
2026-05-04 11:17 -21.41252 125.32401 34558 ft 227 kts 221°
2026-05-04 11:19 -21.50597 125.26071 34526 ft 227 kts 221°
2026-05-04 11:19 -21.51936 125.25162 34515 ft 227 kts 221°
2026-05-04 11:19 -21.53275 125.24254 34507 ft 228 kts 221°
2026-05-04 11:19 -21.54616 125.23345 34500 ft 228 kts 221°
2026-05-04 11:20 -21.55502 125.22743 34493 ft 228 kts 221°
2026-05-04 11:20 -21.57297 125.21525 34488 ft 228 kts 221°
2026-05-04 11:20 -21.58183 125.20924 34492 ft 228 kts 221°
2026-05-04 11:20 -21.59522 125.20015 34487 ft 227 kts 221°
2026-05-04 11:22 -21.68895 125.13646 34462 ft 228 kts 221°
2026-05-04 11:22 -21.70236 125.12734 34466 ft 228 kts 221°
2026-05-04 11:23 -21.71572 125.11824 34465 ft 228 kts 221°
2026-05-04 11:23 -21.72910 125.10913 34461 ft 228 kts 221°
2026-05-04 11:24 -21.80933 125.05444 34457 ft 228 kts 221°
2026-05-04 11:25 -21.82271 125.04531 34456 ft 228 kts 221°
2026-05-04 11:25 -21.83615 125.03614 34455 ft 228 kts 221°
2026-05-04 11:25 -21.84952 125.02701 34454 ft 228 kts 221°
2026-05-04 11:26 -21.87636 125.00868 34459 ft 228 kts 221°
2026-05-04 11:27 -21.97013 124.94458 34450 ft 229 kts 221°
2026-05-04 11:28 -21.98375 124.93525 34443 ft 229 kts 221°
2026-05-04 11:28 -21.99705 124.92615 34439 ft 229 kts 221°
2026-05-04 11:28 -22.01049 124.91695 34440 ft 229 kts 221°
2026-05-04 11:28 -22.02391 124.90777 34448 ft 229 kts 221°
2026-05-04 11:29 -22.03736 124.89855 34437 ft 229 kts 221°
2026-05-04 11:29 -22.05081 124.88934 34435 ft 229 kts 221°
2026-05-04 11:29 -22.06427 124.88012 34435 ft 229 kts 221°
2026-05-04 11:29 -22.07772 124.87089 34436 ft 229 kts 221°
2026-05-04 11:31 -22.17183 124.80634 34450 ft 229 kts 220°
2026-05-04 11:33 -22.26619 124.74150 34455 ft 230 kts 220°
2026-05-04 11:33 -22.27971 124.73221 34450 ft 230 kts 220°
2026-05-04 11:33 -22.29326 124.72289 34451 ft 230 kts 220°
2026-05-04 11:34 -22.30660 124.71370 34449 ft 230 kts 220°
2026-05-04 11:34 -22.32014 124.70439 34446 ft 231 kts 220°
2026-05-04 11:34 -22.33369 124.69506 34442 ft 231 kts 220°
2026-05-04 11:34 -22.34727 124.68571 34445 ft 231 kts 220°
2026-05-04 11:35 -22.36086 124.67635 34449 ft 231 kts 220°
2026-05-04 11:35 -22.37441 124.66702 34453 ft 231 kts 220°
2026-05-04 11:35 -22.38795 124.65769 34454 ft 231 kts 220°
2026-05-04 11:35 -22.40151 124.64834 34453 ft 231 kts 220°
2026-05-04 11:36 -22.41500 124.63905 34456 ft 231 kts 220°
2026-05-04 11:36 -22.42847 124.62976 34454 ft 231 kts 220°
2026-05-04 11:36 -22.44199 124.62043 34451 ft 231 kts 220°
2026-05-04 11:36 -22.45560 124.61104 34450 ft 232 kts 220°
2026-05-04 11:37 -22.46919 124.60166 34448 ft 232 kts 220°
2026-05-04 11:37 -22.48281 124.59227 34452 ft 232 kts 220°
2026-05-04 11:37 -22.49638 124.58290 34452 ft 232 kts 220°
2026-05-04 11:37 -22.50999 124.57350 34459 ft 232 kts 220°
2026-05-04 11:38 -22.52357 124.56412 34466 ft 232 kts 220°
2026-05-04 11:38 -22.53716 124.55474 34474 ft 232 kts 220°
2026-05-04 11:38 -22.55078 124.54532 34484 ft 232 kts 220°
2026-05-04 11:38 -22.56434 124.53595 34480 ft 232 kts 220°
2026-05-04 11:39 -22.57797 124.52653 34484 ft 232 kts 220°
2026-05-04 11:39 -22.59161 124.51710 34478 ft 233 kts 220°
2026-05-04 11:40 -22.67340 124.46050 34496 ft 233 kts 220°
2026-05-04 11:41 -22.68706 124.45104 34503 ft 233 kts 220°
2026-05-04 11:41 -22.70070 124.44158 34503 ft 233 kts 220°
2026-05-04 11:41 -22.71438 124.43210 34504 ft 233 kts 220°
2026-05-04 11:41 -22.72786 124.42276 34512 ft 233 kts 220°
2026-05-04 11:42 -22.74153 124.41329 34525 ft 233 kts 220°
2026-05-04 11:42 -22.75520 124.40381 34529 ft 233 kts 220°
2026-05-04 11:42 -22.76886 124.39433 34533 ft 233 kts 220°
2026-05-04 11:42 -22.78255 124.38484 34532 ft 234 kts 220°
2026-05-04 11:43 -22.79623 124.37534 34543 ft 234 kts 220°
2026-05-04 11:43 -22.80992 124.36584 34548 ft 234 kts 220°
2026-05-04 11:43 -22.82362 124.35633 34556 ft 234 kts 220°
2026-05-04 11:43 -22.83733 124.34681 34563 ft 233 kts 220°
2026-05-04 11:44 -22.85102 124.33730 34570 ft 233 kts 220°
2026-05-04 11:44 -22.86471 124.32778 34574 ft 234 kts 220°
2026-05-04 11:44 -22.87824 124.31838 34574 ft 234 kts 220°
2026-05-04 11:44 -22.89194 124.30886 34584 ft 234 kts 220°
2026-05-04 11:45 -22.90560 124.29936 34594 ft 234 kts 220°
2026-05-04 11:45 -22.91932 124.28982 34605 ft 234 kts 220°
2026-05-04 11:45 -22.93300 124.28031 34610 ft 234 kts 220°
2026-05-04 11:45 -22.94667 124.27079 34617 ft 234 kts 220°
2026-05-04 11:46 -22.96035 124.26127 34613 ft 234 kts 220°
2026-05-04 11:46 -22.97408 124.25171 34612 ft 234 kts 220°
2026-05-04 11:46 -22.98779 124.24216 34605 ft 235 kts 220°
2026-05-04 11:46 -23.00155 124.23258 34606 ft 235 kts 220°
2026-05-04 11:47 -23.01535 124.22297 34609 ft 235 kts 220°
2026-05-04 11:47 -23.02910 124.21339 34618 ft 235 kts 220°
2026-05-04 11:47 -23.04288 124.20378 34628 ft 235 kts 220°
2026-05-04 11:47 -23.05650 124.19429 34637 ft 235 kts 220°
2026-05-04 11:48 -23.07025 124.18470 34645 ft 235 kts 220°
2026-05-04 11:48 -23.08401 124.17510 34651 ft 235 kts 219°
2026-05-04 11:48 -23.09781 124.16547 34654 ft 235 kts 219°
2026-05-04 11:48 -23.11160 124.15584 34653 ft 236 kts 219°
2026-05-04 11:49 -23.12543 124.14619 34655 ft 236 kts 220°
2026-05-04 11:49 -23.13923 124.13655 34661 ft 236 kts 219°
2026-05-04 11:49 -23.15304 124.12691 34672 ft 236 kts 219°
2026-05-04 11:49 -23.16684 124.11727 34683 ft 236 kts 219°
2026-05-04 11:50 -23.18062 124.10765 34693 ft 236 kts 219°
2026-05-04 11:50 -23.19438 124.09803 34695 ft 236 kts 219°
2026-05-04 11:50 -23.20820 124.08836 34694 ft 236 kts 219°
2026-05-04 11:50 -23.22205 124.07868 34695 ft 236 kts 219°
2026-05-04 11:51 -23.23573 124.06911 34696 ft 237 kts 219°
2026-05-04 11:51 -23.24958 124.05942 34707 ft 237 kts 219°
2026-05-04 11:51 -23.26340 124.04975 34728 ft 236 kts 219°
2026-05-04 11:51 -23.27723 124.04007 34742 ft 236 kts 219°
2026-05-04 11:52 -23.29107 124.03038 34748 ft 236 kts 219°
2026-05-04 11:52 -23.30490 124.02070 34755 ft 236 kts 219°
2026-05-04 11:52 -23.31872 124.01101 34750 ft 237 kts 219°
2026-05-04 11:52 -23.33255 124.00132 34749 ft 237 kts 219°
2026-05-04 11:53 -23.34642 123.99159 34749 ft 237 kts 219°
2026-05-04 11:53 -23.36028 123.98188 34754 ft 237 kts 219°
2026-05-04 11:53 -23.37396 123.97229 34771 ft 237 kts 219°
2026-05-04 11:53 -23.38782 123.96257 34783 ft 237 kts 219°
2026-05-04 11:55 -23.48501 123.89432 34823 ft 237 kts 219°
2026-05-04 11:55 -23.49888 123.88458 34837 ft 237 kts 219°
2026-05-04 11:56 -23.51277 123.87481 34836 ft 237 kts 219°
2026-05-04 11:56 -23.52654 123.86514 34838 ft 238 kts 219°
2026-05-04 11:56 -23.54044 123.85538 34831 ft 238 kts 219°
2026-05-04 11:56 -23.55440 123.84557 34843 ft 238 kts 219°
2026-05-04 11:57 -23.56834 123.83578 34844 ft 238 kts 219°
2026-05-04 11:57 -23.58229 123.82598 34856 ft 238 kts 219°
2026-05-04 11:57 -23.59621 123.81620 34870 ft 238 kts 219°
2026-05-04 11:57 -23.61016 123.80639 34883 ft 238 kts 219°
2026-05-04 11:58 -23.62403 123.79664 34892 ft 238 kts 219°
2026-05-04 11:58 -23.63794 123.78685 34894 ft 238 kts 219°
2026-05-04 11:58 -23.65186 123.77706 34897 ft 238 kts 219°
2026-05-04 11:58 -23.66580 123.76724 34903 ft 239 kts 219°
2026-05-04 11:59 -23.67978 123.75740 34904 ft 239 kts 219°
2026-05-04 11:59 -23.69373 123.74757 34908 ft 239 kts 219°
2026-05-04 11:59 -23.70752 123.73786 34915 ft 239 kts 219°
2026-05-04 11:59 -23.72147 123.72803 34927 ft 239 kts 219°
2026-05-04 12:00 -23.73543 123.71819 34935 ft 239 kts 219°
2026-05-04 12:00 -23.74938 123.70836 34940 ft 239 kts 219°
2026-05-04 12:00 -23.76333 123.69851 34944 ft 239 kts 219°
2026-05-04 12:00 -23.77727 123.68868 34949 ft 239 kts 219°
2026-05-04 12:01 -23.79123 123.67884 34958 ft 239 kts 219°
2026-05-04 12:01 -23.80517 123.66899 34964 ft 239 kts 219°
2026-05-04 12:02 -23.88914 123.60967 34996 ft 240 kts 219°
2026-05-04 12:03 -23.90313 123.59978 35010 ft 239 kts 219°
2026-05-04 12:03 -23.91713 123.58989 35030 ft 239 kts 219°
2026-05-04 12:03 -23.93108 123.58001 35043 ft 239 kts 219°
2026-05-04 12:03 -23.94503 123.57015 35050 ft 239 kts 219°
2026-05-04 12:04 -23.95894 123.56030 35056 ft 239 kts 219°
2026-05-04 12:04 -23.97293 123.55039 35051 ft 240 kts 219°
2026-05-04 12:04 -23.98694 123.54047 35047 ft 240 kts 219°
2026-05-04 12:04 -24.00096 123.53053 35052 ft 240 kts 219°
2026-05-04 12:05 -24.01502 123.52058 35063 ft 240 kts 219°
2026-05-04 12:05 -24.02882 123.51079 35070 ft 240 kts 219°
2026-05-04 12:05 -24.04282 123.50087 35078 ft 240 kts 219°
2026-05-04 12:05 -24.05682 123.49094 35083 ft 240 kts 219°
2026-05-04 12:06 -24.07082 123.48101 35087 ft 240 kts 219°
2026-05-04 12:06 -24.08480 123.47109 35085 ft 240 kts 219°
2026-05-04 12:06 -24.09885 123.46111 35091 ft 240 kts 219°
2026-05-04 12:06 -24.11289 123.45115 35097 ft 240 kts 219°
2026-05-04 12:07 -24.12689 123.44121 35109 ft 240 kts 219°
2026-05-04 12:07 -24.14093 123.43124 35120 ft 240 kts 219°
2026-05-04 12:07 -24.15492 123.42130 35132 ft 240 kts 219°
2026-05-04 12:07 -24.16894 123.41134 35134 ft 240 kts 219°
2026-05-04 12:08 -24.18293 123.40139 35147 ft 240 kts 219°
2026-05-04 12:08 -24.19223 123.39478 35152 ft 240 kts 219°
2026-05-04 12:08 -24.21101 123.38142 35158 ft 240 kts 219°
2026-05-04 12:08 -24.22506 123.37143 35159 ft 240 kts 219°
2026-05-04 12:09 -24.23908 123.36145 35162 ft 241 kts 219°
2026-05-04 12:09 -24.25309 123.35147 35157 ft 241 kts 219°
2026-05-04 12:09 -24.26239 123.34485 35166 ft 241 kts 219°
2026-05-04 12:09 -24.28121 123.33145 35170 ft 241 kts 219°
2026-05-04 12:10 -24.29526 123.32144 35180 ft 241 kts 219°
2026-05-04 12:10 -24.30457 123.31481 35190 ft 241 kts 219°
2026-05-04 12:10 -24.31864 123.30478 35196 ft 241 kts 219°
2026-05-04 12:10 -24.33720 123.29154 35199 ft 241 kts 219°
2026-05-04 12:11 -24.35124 123.28153 35201 ft 241 kts 219°
2026-05-04 12:11 -24.36534 123.27147 35203 ft 241 kts 219°
2026-05-04 12:11 -24.37941 123.26143 35213 ft 241 kts 219°
2026-05-04 12:11 -24.38875 123.25477 35219 ft 241 kts 219°
2026-05-04 12:12 -24.40266 123.24451 35229 ft 240 kts 223°
2026-05-04 12:12 -24.41149 123.23687 35230 ft 239 kts 224°
2026-05-04 12:12 -24.42832 123.22132 35236 ft 239 kts 225°
2026-05-04 12:12 -24.44095 123.20946 35247 ft 239 kts 225°
2026-05-04 12:13 -24.44932 123.20160 35255 ft 239 kts 225°
2026-05-04 12:14 -24.53780 123.11885 35302 ft 239 kts 225°